Regional Weather Roundup
Issued by NWS

Home | Current Version | Previous Version | Text Only | Print | Product List | Glossary On
Versions: 1 2 3 4 5 6 7 8 9 10 11 12 13 14 15 16 17 18 19 20 21 22 23 24 25 26 27 28 29 30 31 32 33 34 35 36 37 38 39 40 41 42 43 44 45 46 47 48 49 50
000
ASUS44 KFWD 261015
RWRTX
NORTH TEXAS HOURLY WEATHER ROUNDUP
NATIONAL WEATHER SERVICE FORT WORTH TX
400 AM CST MON JAN 26 2015

NOTE: "FAIR" INDICATES FEW OR NO CLOUDS BELOW 12,000 FEET WITH NO
SIGNIFICANT WEATHER AND/OR OBSTRUCTIONS TO VISIBILITY.

TXZ118-119-261100-
DALLAS/FORT WORTH METROPLEX

CITY           SKY/WX    TMP DP  RH WIND       PRES   REMARKS
DFW AIRPORT    CLEAR     43  27  53 NW8       30.20S WCI  38
DALLAS LOVE    CLEAR     39  30  70 W3        30.21F
FTW MEACHAM    CLEAR     42  27  55 CALM      30.21F
DAL-EXECUTIVE  CLEAR     43  27  53 NW6       30.20S WCI  39
FTW-ALLIANCE   CLEAR     34  27  75 CALM      30.21S
FTW-SPINKS     CLEAR     32  28  84 CALM      30.23F
ARLINGTON      CLEAR     40  26  57 W3        30.21F
GRAND PRAIRIE  CLEAR     45  29  53 W3        30.22F
ADDISON        CLEAR     42  31  65 CALM      30.22S
MESQUITE       CLEAR     40  28  64 CALM      30.21F
LANCASTER      CLEAR     33  27  79 CALM      30.22S
$$

TXZ091>094-102>105-117-120-121-131>134-261100-
NORTH CENTRAL TEXAS

CITY           SKY/WX    TMP DP  RH WIND       PRES   REMARKS
SHRMAN/DENISON CLEAR     35  31  85 CALM      30.21S
GAINESVILLE    CLEAR     32  28  83 CALM      30.22F
BOWIE          CLEAR     36  28  74 CALM      30.19F
BRIDGEPORT     CLEAR     35  27  73 CALM      30.23F
DECATUR        CLEAR     42  24  50 NW3       30.20F
DENTON         CLEAR     35  27  72 CALM      30.21S
MCKINNEY       CLEAR     36  28  73 CALM      30.20F
GREENVILLE     CLEAR     37  30  75 CALM      30.20S
ROCKWALL       CLEAR     38  29  70 CALM      30.19F
TERRELL        CLEAR     41  29  62 N3        30.20F
WAXAHACHIE     CLEAR     37  29  72 NW5       30.22F WCI  34
CLEBURNE       CLEAR     39  27  60 NW6       30.22F WCI  35
GRANBURY       CLEAR     34  30  85 CALM      30.23F
$$

TXZ083>090-098>101-113>116-127>130-139>142-154-155-261100-
WESTERN NORTH TEXAS

CITY           SKY/WX    TMP DP  RH WIND       PRES   REMARKS
WICHITA FALLS  CLEAR     39  27  62 CALM      30.19F
WF-KICKAPOO    CLEAR    N/A N/A N/A W6        30.21F
VERNON         PTCLDY    37  29  74 W10       30.21F WCI  30
ABILENE        CLEAR     43  29  57 CALM      30.22F
ABILENE-DYESS  CLEAR     40  31  69 E2        30.21F
BRECKENRIDGE   CLEAR     37  31  79 CALM      30.21F
GRAHAM         CLEAR     32  29  90 CALM      30.20F
MINERAL WELLS  CLEAR     35  28  75 N3        30.20F
STEPHENVILLE   CLEAR     42  31  62 CALM      30.23F
COMANCHE       CLEAR     45  31  59 N5        30.20F
BROWNWOOD      PTCLDY    36  30  80 CALM      30.22S
COLEMAN        CLEAR     41  33  73 CALM      30.21F
BRADY          CLEAR     37  30  75 SW7       30.22S WCI  32
$$

TXZ143>147-156>162-174-175-261100-
CENTRAL TEXAS

CITY           SKY/WX    TMP DP  RH WIND       PRES   REMARKS
WACO           CLEAR     35  29  78 NW5       30.22S WCI  31
WACO-MCGREGOR  CLEAR     39  27  60 NW7       30.22S WCI  34
HILLSBORO      CLEAR     40  28  60 N8        30.20F WCI  35
CORSICANA      CLEAR     38  28  67 NW8       30.22R WCI  32
MEXIA          CLEAR     42  28  56 NW6       30.19F WCI  39
HEARNE         CLEAR     35  32  87 CALM      30.21F
CAMERON        CLEAR     43  33  69 N3        30.20S
TEMPLE         CLEAR     36  27  69 N7        30.19F WCI  30
KILLEEN        CLEAR     42  31  64 N7        30.20S WCI  38
KILLEEN-SKYLRK CLEAR     45  28  53 NW7       30.18S
FORT HOOD      CLEAR     42  31  66 MISG      30.19F
GATESVILLE     CLEAR     39  32  75 CALM      30.23S
HAMILTON       CLEAR     42  31  67 NW8       30.21F WCI  36
LAMPASAS       CLEAR     47  32  55 N6        30.19S
$$

TXZ095>097-106>112-122>126-135>138-148>153-164>167-261100-
EAST TEXAS

CITY           SKY/WX    TMP DP  RH WIND       PRES   REMARKS
PARIS          CLEAR     37  28  70 CALM      30.19S
SULPHUR SPRNGS CLEAR     40  32  72 NW7       30.22S WCI  36
MOUNT PLEASANT CLEAR     41  32  69 W8        30.20R WCI  36
GILMER         CLEAR     42  30  64 W5        30.18R WCI  39
MINEOLA        CLEAR     43  32  65 CALM      30.21R
TYLER          CLEAR     41  29  62 NW8       30.18S WCI  36
LONGVIEW       CLEAR     40  29  64 W6        30.17R WCI  36
MARSHALL       CLEAR     44  33  65 NW6       30.17S
ATHENS         CLEAR     37  30  75 CALM      30.19S
PALESTINE      CLEAR     38  31  75 CALM      30.21S
HENDERSON      CLEAR     40  31  70 NW3       30.18S
NACOGDOCHES    CLEAR     41  27  56 N8        30.17S WCI  36
LUFKIN         CLEAR     42  29  59 CALM      30.17S
$$

SUPPLEMENTAL OBSERVATIONS (CENTRAL)

CITY           SKY/WX    TMP DP  RH WIND       PRES   REMARKS
LAKE TEXOMA      N/A     43  32  65 W2          N/A
CADDO GRASSLND   N/A     36  30  80 W1          N/A
PAT MAYSE LAKE   N/A     37  32  81 W2          N/A
GREENVILLE       N/A     37  30  75 NW5         N/A  WCI  34
CEDAR HILL       N/A     37  27  65 SE1         N/A
ATHENS           N/A     41  30  65 NW1         N/A
PALESTINE        N/A     45  30  57 NW3         N/A
MCGREGOR         N/A     43  32  65 NW3         N/A
TEMPLE           N/A     48  30  49 CALM        N/A
$$

SUPPLEMENTAL OBSERVATIONS (WEST)

CITY           SKY/WX    TMP DP  RH WIND       PRES   REMARKS
MILLERS CREEK    N/A     36  32  87 SW3         N/A
POSSUM KINGDOM   N/A     39  30  70 S1          N/A
LBJ GRASSLAND    N/A     39  27  60 CALM        N/A
GRANBURY         N/A     32  28  86 SW1         N/A
HAMBY            N/A     34  28  80 E2          N/A
IVIE RESERVOIR   N/A     39  32  75 W5          N/A  WCI  36
COLORADO BEND    N/A     43  32  65 W6          N/A  WCI  39
$$

SUPPLEMENTAL OBSERVATIONS (EAST)

CITY           SKY/WX    TMP DP  RH WIND       PRES   REMARKS
TEXARKANA        N/A     39  32  75 W2          N/A
LINDEN           N/A     41  32  70 NW5         N/A  WCI  38
CADDO LAKE       N/A     39  32  75 NW3         N/A
LUFKIN           N/A     39  30  70 MISG        N/A
N SABINE NF      N/A     39  32  75 MISG        N/A
$$

SUPPLEMENTAL OBSERVATIONS ARE A COLLECTION OF AUTOMATED INSTRUMENTS
THAT ARE MAINTAINED BY A VARIETY OF FEDERAL AND STATE AGENCIES.
CERTAIN ELEMENTS...SUCH AS HUMIDITY VALUES AND SUSTAINED WIND
SPEEDS...MAY BE APPROXIMATED.




USA.gov is the U.S. government's official web portal to all federal, state and local government web resources and services.